Torna al catalogo

DELTA 1 DEB

AttivoLEO
NORAD 14480·DEBRIS·🇺🇸 United States

Lanciato Nov 6, 1973 da Vandenberg Space Force Base

Loading…

Prossimi Passaggi (prossime 24 ore)

TLE

AggiornatoSource: Space-Track

Epoca: Sep 14, 2026, 11:27 UTC

1 14480U 73086GR  26257.47746977  .00030991  00000-0  10702-1 0  9997
2 14480 102.6262 144.7890 0006165 215.8023 318.3369 14.35689772 72262

Traccia DELTA 1 DEB in tempo reale con AllMySat

Download on the App Store